Weather in Silves

Portugal     37°11′14″N   8°26′15″W
temp.,
°C
wind,
m/s
gust,
m/s
humid.,
%
clouds,
%
prec.,
mm/h
press.,
hPa
HPBL,
m
19 april, mon
mon1901:00+13nnw228098 0.0 102044
04:00+11nnw2280100 0.0 101929
07:00+11n228061 0.0 101934
10:00+18nnw224512 0.0 1019624
13:00+22wsw23354 0.0 10181308
16:00+22nw65320 0.0 10171347
19:00+18nw48517 0.0 1017672
22:00+12nnw359153 0.0 1019126
20 april, tue
tue2001:00+12nnw239721 0.0 101876
04:00+13nnw249250 0.0 1017280
07:00+13nnw348850 0.0 1017292
10:00+17nw3465100 0.0 1017862
13:00+21nw454598 0.0 10161669
16:00+21nw66455 0.0 10141491
19:00+17nw676318 0.0 1015863
22:00+12nnw349517 0.0 1016115
21 april, wed
wed2101:00+11nnw249698 0.0 101685
04:00+11n2295100 0.0 101468
07:00+12nnw129439 0.0 101436
10:00+17wnw2362100 0.0 1015811
13:00+20w3446100 0.0 10141227
16:00+18w5561100 0.0 1013877
19:00+16w4676100 0.0 1013730
22:00+13w2595100 0.0 1014144
22 april, thu
thu2201:00+14w2593100 0.3 1013244
04:00+13nw2397100 0.3 101273
07:00+12nnw119624 0.3 101223
10:00+18wnw136790 0.0 1013899
13:00+21sw4446100 0.0 10131664
16:00+21wsw5447100 0.0 10121250
19:00+18wnw3458100 0.0 1013622
22:00+14nnw1185100 0.0 101428
23 april, fri
fri2301:00+13e1183100 0.0 101315
04:00+13s1180100 0.0 101221
07:00+12ese1288100 0.0 101125
10:00+18sse356614 0.0 1011717
13:00+20s675690 0.3 10111026
16:00+20sse795631 0.3 10091040
19:00+17sse587510 0.3 1011768
22:00+14sse259531 0.4 1012132